loading
|

THOR ABLESTAR DEB, 155

Orbit data source: Space-Track

THOR ABLESTAR DEB, 155 is space debris in LEO originally from a launch on Thu, 29 Jun 1961 UTC launched from the Air Force Eastern Test Range (AFETR). Debris objects in space refer to the collection of defunct objects orbiting the Earth. Examples of debris include non-operational satellites, rocket bodies, and fragments generated from explosions, collisions, or faulty payload assembly.

Loading next visibility...
Loading greatness...
THOR ABLESTAR DEB details
Identifier
155, 1961-015AR
Orbit
LEO
Last TLE update11 hours ago
Origin
Flag of USUSAF SSD (US)
ManufacturerUnknown
Mission statusUnknown
MissionUnknown
Bus & MotorUnknown
MassUnknown
Launch date (UTC)
1961-06-29 (63 years ago)
Launch vehicleUnknown
Launch site
Air Force Eastern Test Range (AFETR)
Object type
Payload
Rocket body
Debris
Radar Cross SectionSmall (<0.1 m²)

Expand to show TLE details & history

TLE from 11 hours ago
0 THOR ABLESTAR DEB
1   155U 61015AR  24251.59503953  .00013771  00000-0  38491-2 0  9993
2   155  66.8790 202.4478 0034640  33.2260 327.1012 14.45974422267732
Epoch: 2024-09-07T14:16Z
Definitive object data (Epoch: 2024-09-07T14:16:51.415Z)
Latitude-0.00009°
Longitude1.08256°
Altitude720.287 km
Speed7.507 km/s
True Right ascension13h 29m 47s
True Declination0° 00' 00"
Sunlit
Object was in daylight at TLE epoch
Predictive object data (real-time)
Latitude-50.39862°
Longitude-149.2568°
Altitude780.051 km
Speed7.451 km/s
Apparent Right ascension04h 31m 17s
Apparent Declination-46° 17' 46"
Sunlit
Object is in daylight
Predictive observer data (real-time)
Local Sidereal Time17:29:50
Azimuth125.71° SE
Elevation-77.583°
Doppler factor1
Orbital elements
Apogee761.816 km
Perigee712.521 km
Semi-major axis7,115.306 km
Eccentricity0.003464
Inclination66.879°
RAAN202.4478°
Arg. of periapsis33.226°
True anomaly326.88481°
Mean anomaly327.1012°
Eccentric anomaly326.99308°
Mean motion3.6162 °/min
BSTAR0.0038491
Period99.55 mins
No data available

THOR ABLESTAR DEB Visibility forecast

Observer location: 39.9160978°, -105.1181434

THOR ABLESTAR DEB is not visible in the next 10 days
Span
Click to sort rows by Start time (UTC) header in descending order
Start Az.
Max El. time (UTC)
Max El. Az.
Max El.
End time (UTC)
End Az.